DECAYED

DMSP 5D-2 F6 DEB, 40916 (Decayed)

Orbit data source: Space-Track

DMSP 5D-2 F6 DEB, 40916 was space debris in SSO originally from a launch on Tue, 21 Dec 1982 UTC launched from the Air Force Western Test Range (AFWTR). Debris objects in space refer to the collection of defunct objects orbiting the Earth. Examples of debris include non-operational satellites, rocket bodies, and fragments generated from explosions, collisions, or faulty payload assembly.

Not visible in the next 10 days
Identifier
40916, 1982-118J
Orbit
Decayed
Country
Flag of USUS
Related business
Manufacturer
Unknown
Mission
Decayed spacecraft
Bus & Motor
Unknown
Mass
Unknown
Launch date (UTC)
1982-12-21 (44 years ago)
Launch vehicle
Unknown
Launch site
Air Force Western Test Range (AFWTR)
Object type
Payload
Rocket body
Debris
Shape & HBR
Unknown shape, 0.1 m
Radar Cross Section
Small (<0.1 m²)

Expand to show TLE details & history
Last TLE update: 8 months ago

TLE from 8 months ago
0 DMSP 5D-2 F6 DEB
1 40916U 82118J   25287.64596455  .00440365  00000-0  10779-1 0  9995
2 40916  98.3772 170.5523 0006185  96.8953 263.2993 15.38984613505485
Epoch: 2025-10-14T15:30Z
TLE epoch observation values (Epoch: 2025-10-14T15:30:11.337Z)
Latitude
-0.00003°
Longitude
-85.42634°
Altitude
452.692 km
Speed
7.641 km/s
True Right ascension
11h 22m 12s
True Declination
0° 00' 00"
Sunlit
Object was in daylight at epoch
Visualization orbit readout
Latitude
Unknown
Longitude
Unknown
Altitude
Unknown
Speed
Unknown
Apparent Right ascension
Unknown
Apparent Declination
Unknown
Sunlit
N/A
Visualization observer readout
Local Sidereal Time
21:35:27
Azimuth
Unknown
Elevation
Unknown
Doppler factor
Unknown
Orbital elements
Apogee altitude
450.317 km
Perigee altitude
441.875 km
Semi-major axis
6,824.233 km
Eccentricity
0.00062
Inclination
98.3772°
RAAN
170.5523°
Arg. of periapsis
96.8953°
True anomaly
263.22892°
Mean anomaly
263.2993°
Eccentric anomaly
263.26411°
Mean motion
3.85001 °/min
Orbital period
93.51 mins
BSTAR
0.010779
Loading maneuver chart data...
Computing Atmospheric mass density...
Loading historical data...
Loading historical data...
Loading historical data...
Loading historical data...
Loading historical data...
Loading historical data...
Loading historical data...

Documentation

Showing up to 5 results
|